GATOR1 KJAX-KJAX

Flight info

Callsign GATOR1
Flight time 1h 38m
Altitude 26000
Route CRG V267 ORL V531 SABOT T347 ODDEL D0030 HALLR D0015 MCF VAYPO V441 OCF T211 CRG
Aircraft F35/M-DILRTUV/S

Departure

Time 2026-05-03 21:09
Airport Jacksonville International Airport (KJAX)

Arrival

Time 2026-05-03 22:48
Airport Jacksonville International Airport (KJAX)
Time Latitude Longitude Altitude Speed Heading
2026-05-03 20:54 30.48915 -81.70216 39 ft 0 kts 113°
2026-05-03 21:07 30.48915 -81.70214 39 ft 2 kts 113°
2026-05-03 21:07 30.48936 -81.70205 31 ft 9 kts 353°
2026-05-03 21:08 30.49031 -81.70193 39 ft 13 kts 25°
2026-05-03 21:08 30.49115 -81.70145 39 ft 14 kts 26°
2026-05-03 21:08 30.49191 -81.70094 36 ft 14 kts 47°
2026-05-03 21:08 30.49167 -81.70005 37 ft 9 kts 129°
2026-05-03 21:09 30.49125 -81.69949 37 ft 10 kts 130°
2026-05-03 21:09 30.48559 -81.69176 89 ft 248 kts 128°
2026-05-03 21:09 30.47105 -81.67408 533 ft 303 kts 143°
2026-05-03 21:09 30.45171 -81.66485 1047 ft 313 kts 161°
2026-05-03 21:10 30.42990 -81.65745 1797 ft 335 kts 162°
2026-05-03 21:10 30.40770 -81.65023 2532 ft 326 kts 162°
2026-05-03 21:10 30.38594 -81.64345 3252 ft 327 kts 163°
2026-05-03 21:10 30.36161 -81.63578 4205 ft 375 kts 163°
2026-05-03 21:11 30.33694 -81.62783 5074 ft 377 kts 164°
2026-05-03 21:11 30.31146 -81.61922 5948 ft 385 kts 164°
2026-05-03 21:11 30.28536 -81.61001 6887 ft 396 kts 164°
2026-05-03 21:11 30.25887 -81.60052 7863 ft 400 kts 165°
2026-05-03 21:12 30.23554 -81.59220 8772 ft 402 kts 165°
2026-05-03 21:12 30.20932 -81.58287 9858 ft 404 kts 165°
2026-05-03 21:12 30.18214 -81.57268 11037 ft 415 kts 165°
2026-05-03 21:12 30.15428 -81.56203 12332 ft 426 kts 165°
2026-05-03 21:13 30.12563 -81.55104 13691 ft 433 kts 166°
2026-05-03 21:13 30.09679 -81.54016 14784 ft 444 kts 166°
2026-05-03 21:13 30.06745 -81.52846 15066 ft 437 kts 165°
2026-05-03 21:13 30.03947 -81.51624 15104 ft 426 kts 164°
2026-05-03 21:14 30.01156 -81.50370 15154 ft 444 kts 164°
2026-05-03 21:14 29.98247 -81.49061 15153 ft 448 kts 163°
2026-05-03 21:14 29.95352 -81.47729 15100 ft 443 kts 163°
2026-05-03 21:14 29.92497 -81.46385 15069 ft 446 kts 163°
2026-05-03 21:15 29.89594 -81.45159 15028 ft 438 kts 167°
2026-05-03 21:15 29.86294 -81.43968 14983 ft 426 kts 168°
2026-05-03 21:15 29.83465 -81.42985 14973 ft 420 kts 170°
2026-05-03 21:15 29.80584 -81.42264 14978 ft 442 kts 175°
2026-05-03 21:16 29.77526 -81.41680 14981 ft 448 kts 176°
2026-05-03 21:16 29.74437 -81.41134 14980 ft 450 kts 176°
2026-05-03 21:16 29.71326 -81.40620 14978 ft 446 kts 178°
2026-05-03 21:16 29.68290 -81.40227 14946 ft 432 kts 179°
2026-05-03 21:17 29.66324 -81.39991 14916 ft 425 kts 179°
2026-05-03 21:17 29.63381 -81.39649 14868 ft 423 kts 180°
2026-05-03 21:17 29.59486 -81.39231 14848 ft 427 kts 180°
2026-05-03 21:17 29.57493 -81.39029 14865 ft 437 kts 180°
2026-05-03 21:18 29.54476 -81.38718 15874 ft 429 kts 180°
2026-05-03 21:18 29.51507 -81.38423 17683 ft 428 kts 181°
2026-05-03 21:18 29.48494 -81.38148 19523 ft 438 kts 181°
2026-05-03 21:18 29.45432 -81.37888 21494 ft 454 kts 182°
2026-05-03 21:19 29.42219 -81.37629 23634 ft 471 kts 183°
2026-05-03 21:19 29.38919 -81.37389 25581 ft 483 kts 183°
2026-05-03 21:19 29.35434 -81.37165 26088 ft 508 kts 184°
2026-05-03 21:19 29.31970 -81.36961 26037 ft 482 kts 184°
2026-05-03 21:20 29.28709 -81.36769 25968 ft 460 kts 184°
2026-05-03 21:20 29.25508 -81.36595 25896 ft 457 kts 185°
2026-05-03 21:20 29.22314 -81.36509 25951 ft 462 kts 187°
2026-05-03 21:20 29.19054 -81.36584 26077 ft 474 kts 188°
2026-05-03 21:21 29.15691 -81.36708 26055 ft 485 kts 188°
2026-05-03 21:21 29.12360 -81.36866 26037 ft 484 kts 189°
2026-05-03 21:21 29.08990 -81.37051 26020 ft 483 kts 189°
2026-05-03 21:21 29.05627 -81.37259 26003 ft 483 kts 189°
2026-05-03 21:22 29.02277 -81.37492 25997 ft 482 kts 190°
2026-05-03 21:22 28.98907 -81.37681 25995 ft 485 kts 186°
2026-05-03 21:22 28.95566 -81.37441 25950 ft 488 kts 182°
2026-05-03 21:22 28.92174 -81.37145 25918 ft 487 kts 182°
2026-05-03 21:23 28.88793 -81.36869 25883 ft 486 kts 183°
2026-05-03 21:23 28.85416 -81.36561 25908 ft 486 kts 181°
2026-05-03 21:23 28.82059 -81.36081 25970 ft 485 kts 179°
2026-05-03 21:23 28.78712 -81.35586 26031 ft 483 kts 180°
2026-05-03 21:24 28.75369 -81.35079 26048 ft 487 kts 179°
2026-05-03 21:24 28.72013 -81.34545 25968 ft 493 kts 179°
2026-05-03 21:24 28.68601 -81.34061 25959 ft 493 kts 180°
2026-05-03 21:24 28.65186 -81.33665 25941 ft 491 kts 181°
2026-05-03 21:25 28.61764 -81.33369 25986 ft 490 kts 183°
2026-05-03 21:25 28.58365 -81.33122 26029 ft 489 kts 183°
2026-05-03 21:25 28.54960 -81.32908 26028 ft 490 kts 184°
2026-05-03 21:25 28.51590 -81.32569 26028 ft 496 kts 177°
2026-05-03 21:26 28.48188 -81.31719 25971 ft 502 kts 173°
2026-05-03 21:26 28.44778 -81.30727 25931 ft 505 kts 172°
2026-05-03 21:26 28.41381 -81.29694 25911 ft 506 kts 171°
2026-05-03 21:26 28.37993 -81.28510 25922 ft 507 kts 169°
2026-05-03 21:27 28.34681 -81.27263 25923 ft 506 kts 169°
2026-05-03 21:27 28.31334 -81.26005 25954 ft 505 kts 169°
2026-05-03 21:27 28.27996 -81.24739 25982 ft 504 kts 168°
2026-05-03 21:27 28.24676 -81.23417 26003 ft 504 kts 167°
2026-05-03 21:28 28.21380 -81.22039 26004 ft 505 kts 167°
2026-05-03 21:28 28.18103 -81.20664 25980 ft 505 kts 167°
2026-05-03 21:28 28.14781 -81.19270 25951 ft 505 kts 167°
2026-05-03 21:28 28.11512 -81.17912 25948 ft 505 kts 167°
2026-05-03 21:29 28.08198 -81.16566 25889 ft 504 kts 168°
2026-05-03 21:29 28.04885 -81.15251 25868 ft 504 kts 168°
2026-05-03 21:29 28.01575 -81.14144 25909 ft 490 kts 178°
2026-05-03 21:29 27.98284 -81.14212 26148 ft 462 kts 198°
2026-05-03 21:30 27.95326 -81.15526 25930 ft 456 kts 217°
2026-05-03 21:30 27.92791 -81.17643 24996 ft 442 kts 221°
2026-05-03 21:30 27.90350 -81.19763 22066 ft 446 kts 221°
2026-05-03 21:30 27.87898 -81.21931 18365 ft 458 kts 221°
2026-05-03 21:31 27.85341 -81.24198 14285 ft 471 kts 217°
2026-05-03 21:31 27.82375 -81.25839 9979 ft 482 kts 200°
2026-05-03 21:31 27.79035 -81.26492 5372 ft 491 kts 184°
2026-05-03 21:31 27.75594 -81.26476 2862 ft 474 kts 178°
2026-05-03 21:32 27.72486 -81.26429 2703 ft 420 kts 178°
2026-05-03 21:32 27.69705 -81.26414 2503 ft 382 kts 178°
2026-05-03 21:32 27.67166 -81.26441 2410 ft 346 kts 179°
2026-05-03 21:32 27.64805 -81.26563 2377 ft 348 kts 189°
2026-05-03 21:33 27.62626 -81.28005 2354 ft 385 kts 229°
2026-05-03 21:33 27.61584 -81.30843 2421 ft 413 kts 267°
2026-05-03 21:33 27.62147 -81.34047 2722 ft 425 kts 299°
2026-05-03 21:33 27.64063 -81.36449 2713 ft 421 kts 329°
2026-05-03 21:34 27.66889 -81.37400 2702 ft 433 kts
2026-05-03 21:34 27.69797 -81.36700 2719 ft 425 kts 20°
2026-05-03 21:34 27.72600 -81.35819 2698 ft 422 kts 358°
2026-05-03 21:34 27.75491 -81.36323 2725 ft 422 kts 352°
2026-05-03 21:35 27.78407 -81.36855 2676 ft 425 kts 353°
2026-05-03 21:35 27.81306 -81.37026 2633 ft 406 kts 28°
2026-05-03 21:35 27.82018 -81.34470 2693 ft 384 kts 125°
2026-05-03 21:35 27.79505 -81.33548 2575 ft 426 kts 173°
2026-05-03 21:36 27.76481 -81.33199 2521 ft 426 kts 172°
2026-05-03 21:36 27.73602 -81.32824 2453 ft 417 kts 171°
2026-05-03 21:36 27.70714 -81.32320 2423 ft 428 kts 169°
2026-05-03 21:36 27.68473 -81.30882 2275 ft 349 kts 77°
2026-05-03 21:37 27.70450 -81.30202 2424 ft 410 kts 348°
2026-05-03 21:37 27.72472 -81.32127 2556 ft 433 kts 265°
2026-05-03 21:37 27.70632 -81.33126 1702 ft 447 kts 144°
2026-05-03 21:37 27.68560 -81.30665 3591 ft 437 kts 78°
2026-05-03 21:38 27.70383 -81.29054 3259 ft 437 kts 353°
2026-05-03 21:38 27.72363 -81.30842 2981 ft 446 kts 263°
2026-05-03 21:38 27.70997 -81.33330 1997 ft 429 kts 156°
2026-05-03 21:38 27.68536 -81.31020 2493 ft 396 kts 91°
2026-05-03 21:39 27.70183 -81.29201 2725 ft 402 kts 353°
2026-05-03 21:39 27.72797 -81.30277 2678 ft 448 kts 285°
2026-05-03 21:39 27.72425 -81.33807 2605 ft 409 kts 225°
2026-05-03 21:39 27.70014 -81.32817 1812 ft 434 kts 137°
2026-05-03 21:40 27.69382 -81.29607 2679 ft 430 kts 82°
2026-05-03 21:40 27.71779 -81.28648 2656 ft 438 kts 352°
2026-05-03 21:40 27.72494 -81.31479 2615 ft 473 kts 265°
2026-05-03 21:40 27.71032 -81.33356 2054 ft 396 kts 147°
2026-05-03 21:41 27.68698 -81.31080 2783 ft 463 kts 91°
2026-05-03 21:41 27.69190 -81.27610 2696 ft 422 kts 57°
2026-05-03 21:41 27.72023 -81.27236 2690 ft 438 kts 354°
2026-05-03 21:41 27.72968 -81.29866 2646 ft 436 kts 262°
2026-05-03 21:42 27.72212 -81.33000 2427 ft 423 kts 204°
2026-05-03 21:42 27.69203 -81.31933 1988 ft 476 kts 150°
2026-05-03 21:42 27.68446 -81.29047 2716 ft 410 kts 84°
2026-05-03 21:42 27.70230 -81.27293 2707 ft 445 kts 352°
2026-05-03 21:43 27.72956 -81.28334 2673 ft 422 kts 298°
2026-05-03 21:43 27.72830 -81.31816 2677 ft 448 kts 263°
2026-05-03 21:43 27.71121 -81.33341 1799 ft 439 kts 147°
2026-05-03 21:43 27.68066 -81.31208 2098 ft 553 kts 146°
2026-05-03 21:44 27.64740 -81.31011 2393 ft 456 kts 194°
2026-05-03 21:44 27.61944 -81.32255 2113 ft 411 kts 206°
2026-05-03 21:44 27.59728 -81.33994 1925 ft 364 kts 235°
2026-05-03 21:44 27.59389 -81.36612 1768 ft 334 kts 310°
2026-05-03 21:45 27.61322 -81.37788 1717 ft 323 kts
2026-05-03 21:45 27.63118 -81.36417 1364 ft 347 kts 50°
2026-05-03 21:45 27.64395 -81.34236 1329 ft 290 kts 108°
2026-05-03 21:45 27.63174 -81.34338 863 ft 211 kts 225°
2026-05-03 21:46 27.61951 -81.34962 952 ft 250 kts 166°
2026-05-03 21:46 27.60695 -81.36231 1363 ft 323 kts 285°
2026-05-03 21:46 27.62561 -81.37145 1417 ft 346 kts 38°
2026-05-03 21:46 27.64143 -81.35082 1477 ft 345 kts 50°
2026-05-03 21:47 27.65209 -81.32805 1274 ft 308 kts 119°
2026-05-03 21:47 27.63789 -81.33172 1056 ft 278 kts 230°
2026-05-03 21:47 27.62600 -81.34803 1033 ft 252 kts 230°
2026-05-03 21:47 27.62606 -81.36178 623 ft 179 kts 345°
2026-05-03 21:48 27.63655 -81.35699 251 ft 167 kts 50°
2026-05-03 21:48 27.64462 -81.34611 301 ft 225 kts 50°
2026-05-03 21:48 27.65865 -81.33184 1183 ft 277 kts 346°
2026-05-03 21:48 27.65732 -81.34790 1464 ft 310 kts 225°
2026-05-03 21:49 27.63982 -81.36798 1522 ft 382 kts 225°
2026-05-03 21:49 27.62072 -81.38970 2003 ft 383 kts 225°
2026-05-03 21:49 27.60251 -81.41063 3426 ft 367 kts 226°
2026-05-03 21:49 27.58607 -81.43224 3485 ft 357 kts 242°
2026-05-03 21:50 27.57992 -81.45811 3211 ft 329 kts 270°
2026-05-03 21:50 27.58016 -81.48467 3342 ft 349 kts 272°
2026-05-03 21:50 27.58079 -81.51396 4685 ft 399 kts 272°
2026-05-03 21:50 27.58179 -81.54667 6120 ft 440 kts 272°
2026-05-03 21:51 27.58287 -81.57882 6592 ft 396 kts 272°
2026-05-03 21:51 27.58407 -81.60908 6707 ft 375 kts 272°
2026-05-03 21:51 27.58535 -81.63824 6929 ft 367 kts 272°
2026-05-03 21:51 27.58676 -81.66678 7041 ft 365 kts 273°
2026-05-03 21:52 27.58840 -81.69617 6995 ft 387 kts 273°
2026-05-03 21:52 27.59042 -81.72745 6921 ft 408 kts 274°
2026-05-03 21:52 27.59276 -81.75942 6845 ft 417 kts 275°
2026-05-03 21:52 27.59691 -81.79192 6709 ft 418 kts 282°
2026-05-03 21:53 27.60557 -81.82330 6535 ft 419 kts 292°
2026-05-03 21:53 27.61931 -81.85227 6392 ft 420 kts 302°
2026-05-03 21:53 27.63049 -81.87002 6220 ft 412 kts 307°
2026-05-03 21:53 27.65499 -81.90131 5745 ft 385 kts 313°
2026-05-03 21:54 27.66730 -81.91531 5493 ft 371 kts 315°
2026-05-03 21:54 27.68537 -81.93510 5117 ft 353 kts 316°
2026-05-03 21:54 27.70289 -81.95374 4729 ft 339 kts 318°
2026-05-03 21:54 27.72559 -81.97718 4141 ft 326 kts 319°
2026-05-03 21:55 27.73697 -81.98869 3838 ft 322 kts 320°
2026-05-03 21:55 27.75352 -82.00514 3398 ft 317 kts 320°
2026-05-03 21:55 27.77000 -82.02155 3041 ft 315 kts 321°
2026-05-03 21:55 27.78627 -82.03803 2938 ft 318 kts 320°
2026-05-03 21:56 27.80285 -82.05526 2917 ft 325 kts 318°
2026-05-03 21:56 27.81873 -82.07366 2882 ft 326 kts 315°
2026-05-03 21:56 27.83390 -82.09260 2853 ft 324 kts 314°
2026-05-03 21:56 27.84903 -82.11158 2809 ft 326 kts 314°
2026-05-03 21:57 27.86459 -82.13086 2839 ft 335 kts 315°
2026-05-03 21:57 27.88044 -82.15018 2911 ft 341 kts 315°
2026-05-03 21:57 27.89688 -82.16995 2982 ft 346 kts 315°
2026-05-03 21:57 27.91341 -82.18954 2969 ft 340 kts 316°
2026-05-03 21:58 27.92948 -82.20847 2918 ft 332 kts 316°
2026-05-03 21:58 27.94497 -82.22760 2831 ft 327 kts 311°
2026-05-03 21:58 27.95799 -82.24859 2460 ft 327 kts 301°
2026-05-03 21:58 27.96706 -82.27218 2069 ft 325 kts 292°
2026-05-03 21:59 27.97433 -82.29619 1828 ft 312 kts 290°
2026-05-03 21:59 27.97790 -82.31908 1665 ft 282 kts 271°
2026-05-03 21:59 27.97552 -82.34012 1619 ft 268 kts 261°
2026-05-03 21:59 27.97197 -82.36061 1616 ft 264 kts 259°
2026-05-03 22:00 27.96826 -82.38085 1594 ft 260 kts 258°
2026-05-03 22:00 27.96417 -82.40091 1583 ft 261 kts 250°
2026-05-03 22:00 27.95243 -82.41492 1619 ft 250 kts 208°
2026-05-03 22:00 27.93889 -82.42589 1470 ft 223 kts 220°
2026-05-03 22:01 27.92819 -82.43794 1448 ft 212 kts 228°
2026-05-03 22:01 27.91822 -82.45012 1484 ft 203 kts 224°
2026-05-03 22:01 27.90868 -82.46086 1178 ft 190 kts 219°
2026-05-03 22:01 27.89832 -82.47121 904 ft 207 kts 223°
2026-05-03 22:02 27.88808 -82.48199 717 ft 195 kts 220°
2026-05-03 22:02 27.87783 -82.49281 483 ft 209 kts 222°
2026-05-03 22:02 27.86690 -82.50420 201 ft 214 kts 220°
2026-05-03 22:02 27.85530 -82.51534 344 ft 277 kts 220°
2026-05-03 22:03 27.83646 -82.53326 737 ft 372 kts 220°
2026-05-03 22:03 27.81672 -82.55198 945 ft 376 kts 219°
2026-05-03 22:03 27.79736 -82.57043 2205 ft 355 kts 222°
2026-05-03 22:03 27.78033 -82.59286 4092 ft 398 kts 237°
2026-05-03 22:04 27.76767 -82.62234 6002 ft 440 kts 253°
2026-05-03 22:04 27.76304 -82.65730 7534 ft 473 kts 271°
2026-05-03 22:04 27.76973 -82.69529 8306 ft 518 kts 290°
2026-05-03 22:04 27.78749 -82.72905 9322 ft 463 kts 306°
2026-05-03 22:05 27.80872 -82.75391 10465 ft 421 kts 316°
2026-05-03 22:05 27.83223 -82.77179 11318 ft 398 kts 328°
2026-05-03 22:05 27.85781 -82.78331 11521 ft 409 kts 341°
2026-05-03 22:05 27.88681 -82.78679 11845 ft 416 kts 359°
2026-05-03 22:06 27.91596 -82.78065 11940 ft 439 kts 14°
2026-05-03 22:06 27.94449 -82.76782 11963 ft 453 kts 20°
2026-05-03 22:06 27.97385 -82.75338 12013 ft 462 kts 21°
2026-05-03 22:06 28.00332 -82.73854 12033 ft 458 kts 21°
2026-05-03 22:07 28.03202 -82.72367 12050 ft 450 kts 22°
2026-05-03 22:07 28.05999 -82.70888 11996 ft 446 kts 22°
2026-05-03 22:07 28.08799 -82.69393 11938 ft 442 kts 22°
2026-05-03 22:07 28.11565 -82.67885 11909 ft 438 kts 22°
2026-05-03 22:08 28.14288 -82.66368 11875 ft 435 kts 23°
2026-05-03 22:08 28.16986 -82.64827 11818 ft 433 kts 24°
2026-05-03 22:08 28.19670 -82.63254 11779 ft 431 kts 24°
2026-05-03 22:08 28.22324 -82.61659 11732 ft 430 kts 25°
2026-05-03 22:09 28.24939 -82.60059 11747 ft 436 kts 25°
2026-05-03 22:09 28.27752 -82.58542 11834 ft 453 kts 19°
2026-05-03 22:09 28.30719 -82.57317 11922 ft 449 kts 14°
2026-05-03 22:10 28.36629 -82.55446 12450 ft 453 kts 10°
2026-05-03 22:10 28.39704 -82.54581 14356 ft 456 kts 10°
2026-05-03 22:10 28.42880 -82.53686 15684 ft 486 kts
2026-05-03 22:10 28.46262 -82.52766 16090 ft 529 kts
2026-05-03 22:11 28.49958 -82.51915 16047 ft 539 kts
2026-05-03 22:11 28.53653 -82.51225 15988 ft 531 kts
2026-05-03 22:11 28.57301 -82.50650 15914 ft 527 kts
2026-05-03 22:11 28.60933 -82.50080 15930 ft 523 kts
2026-05-03 22:12 28.64480 -82.49536 15979 ft 519 kts
2026-05-03 22:12 28.68113 -82.49032 15991 ft 528 kts
2026-05-03 22:12 28.71772 -82.48573 16005 ft 536 kts
2026-05-03 22:12 28.75507 -82.48139 16063 ft 535 kts
2026-05-03 22:13 28.79161 -82.47266 16047 ft 539 kts 12°
2026-05-03 22:13 28.82638 -82.45723 15992 ft 544 kts 23°
2026-05-03 22:13 28.85922 -82.43450 15981 ft 547 kts 32°
2026-05-03 22:13 28.88997 -82.40873 16009 ft 546 kts 34°
2026-05-03 22:14 28.92052 -82.38289 16013 ft 546 kts 33°
2026-05-03 22:14 28.95089 -82.35801 15522 ft 530 kts 31°
2026-05-03 22:14 28.98191 -82.33691 14441 ft 505 kts 25°
2026-05-03 22:14 29.01250 -82.31875 13366 ft 486 kts 23°
2026-05-03 22:15 29.04227 -82.30148 12327 ft 471 kts 23°
2026-05-03 22:15 29.07091 -82.28496 11357 ft 460 kts 22°
2026-05-03 22:15 29.09936 -82.26932 10895 ft 444 kts 22°
2026-05-03 22:15 29.12876 -82.25416 10963 ft 487 kts 20°
2026-05-03 22:16 29.16029 -82.23867 10979 ft 492 kts 20°
2026-05-03 22:16 29.19129 -82.22328 10978 ft 490 kts 20°
2026-05-03 22:16 29.22260 -82.20756 10975 ft 489 kts 20°
2026-05-03 22:16 29.25414 -82.19177 10973 ft 488 kts 20°
2026-05-03 22:17 29.28537 -82.17620 10967 ft 487 kts 20°
2026-05-03 22:17 29.31648 -82.16069 10977 ft 487 kts 20°
2026-05-03 22:17 29.34766 -82.14513 10982 ft 486 kts 20°
2026-05-03 22:17 29.37828 -82.12984 10983 ft 485 kts 20°
2026-05-03 22:18 29.40930 -82.11434 10989 ft 485 kts 20°
2026-05-03 22:18 29.44034 -82.09884 10996 ft 487 kts 20°
2026-05-03 22:18 29.47169 -82.08360 11000 ft 489 kts 19°
2026-05-03 22:18 29.50295 -82.06904 11000 ft 491 kts 18°
2026-05-03 22:19 29.53480 -82.05425 10997 ft 493 kts 18°
2026-05-03 22:19 29.56660 -82.03937 10995 ft 491 kts 18°
2026-05-03 22:19 29.59783 -82.02474 11002 ft 488 kts 20°
2026-05-03 22:19 29.62607 -82.00348 11026 ft 488 kts 44°
2026-05-03 22:20 29.64461 -81.97066 10794 ft 495 kts 65°
2026-05-03 22:20 29.65743 -81.93417 11043 ft 488 kts 68°
2026-05-03 22:20 29.66862 -81.89722 11090 ft 491 kts 71°
2026-05-03 22:20 29.67946 -81.85949 11077 ft 496 kts 71°
2026-05-03 22:21 29.69009 -81.82240 11036 ft 492 kts 71°
2026-05-03 22:21 29.70077 -81.78504 11005 ft 489 kts 71°
2026-05-03 22:21 29.71141 -81.74784 11005 ft 486 kts 71°
2026-05-03 22:21 29.72199 -81.71088 11017 ft 485 kts 71°
2026-05-03 22:22 29.73251 -81.67423 11024 ft 492 kts 71°
2026-05-03 22:22 29.74408 -81.63677 11032 ft 494 kts 62°
2026-05-03 22:22 29.76724 -81.60817 11084 ft 494 kts 25°
2026-05-03 22:22 29.79986 -81.60065 11096 ft 485 kts 358°
2026-05-03 22:23 29.83321 -81.59975 11051 ft 472 kts 358°
2026-05-03 22:23 29.86612 -81.59879 11016 ft 469 kts 358°
2026-05-03 22:23 29.89905 -81.59788 10988 ft 476 kts 358°
2026-05-03 22:23 29.93213 -81.59707 10983 ft 482 kts 355°
2026-05-03 22:24 29.96243 -81.60998 11050 ft 466 kts 329°
2026-05-03 22:24 29.99137 -81.62757 11054 ft 473 kts 329°
2026-05-03 22:24 30.02057 -81.64538 11086 ft 472 kts 329°
2026-05-03 22:24 30.04923 -81.66287 11128 ft 472 kts 329°
2026-05-03 22:25 30.07841 -81.68063 11081 ft 473 kts 330°
2026-05-03 22:25 30.10774 -81.69793 11022 ft 471 kts 330°
2026-05-03 22:25 30.13692 -81.71506 11004 ft 468 kts 330°
2026-05-03 22:25 30.16567 -81.73171 11012 ft 466 kts 331°
2026-05-03 22:26 30.19471 -81.74832 10999 ft 464 kts 331°
2026-05-03 22:26 30.22385 -81.76454 10984 ft 463 kts 334°
2026-05-03 22:26 30.25491 -81.77498 10992 ft 464 kts 343°
2026-05-03 22:26 30.28635 -81.78380 10987 ft 464 kts 344°
2026-05-03 22:27 30.31776 -81.79221 10533 ft 454 kts 345°
2026-05-03 22:27 30.34787 -81.79996 8888 ft 431 kts 346°
2026-05-03 22:27 30.37649 -81.80707 7175 ft 411 kts 347°
2026-05-03 22:27 30.40363 -81.81351 5549 ft 394 kts 348°
2026-05-03 22:28 30.43005 -81.81946 3971 ft 379 kts 350°
2026-05-03 22:28 30.45559 -81.82100 2798 ft 353 kts 19°
2026-05-03 22:28 30.47192 -81.80336 2829 ft 318 kts 71°
2026-05-03 22:28 30.47729 -81.77806 2767 ft 336 kts 77°
2026-05-03 22:29 30.48066 -81.76036 2432 ft 327 kts 77°
2026-05-03 22:29 30.48862 -81.72680 1894 ft 322 kts 72°
2026-05-03 22:29 30.49588 -81.70078 1984 ft 363 kts 71°
2026-05-03 22:29 30.50441 -81.67266 2044 ft 363 kts 70°
2026-05-03 22:30 30.51008 -81.65467 2076 ft 349 kts 70°
2026-05-03 22:30 30.52081 -81.62003 2142 ft 344 kts 70°
2026-05-03 22:30 30.52606 -81.60247 2161 ft 346 kts 71°
2026-05-03 22:30 30.53391 -81.57557 2206 ft 356 kts 71°
2026-05-03 22:31 30.54447 -81.53885 2290 ft 368 kts 71°
2026-05-03 22:31 30.54981 -81.51991 2303 ft 360 kts 72°
2026-05-03 22:31 30.55727 -81.49302 2288 ft 349 kts 72°
2026-05-03 22:31 30.56459 -81.46630 2496 ft 345 kts 72°
2026-05-03 22:32 30.57186 -81.43903 2587 ft 366 kts 72°
2026-05-03 22:32 30.57946 -81.41038 2556 ft 372 kts 73°
2026-05-03 22:32 30.58691 -81.38146 2487 ft 372 kts 73°
2026-05-03 22:32 30.59390 -81.35333 2444 ft 353 kts 73°
2026-05-03 22:33 30.60034 -81.32654 2501 ft 336 kts 74°
2026-05-03 22:33 30.60634 -81.30068 2560 ft 338 kts 75°
2026-05-03 22:33 30.61226 -81.27391 2588 ft 345 kts 75°
2026-05-03 22:33 30.61803 -81.24668 2588 ft 359 kts 76°
2026-05-03 22:34 30.62402 -81.21768 2613 ft 378 kts 76°
2026-05-03 22:34 30.63011 -81.18731 2613 ft 392 kts 77°
2026-05-03 22:34 30.63659 -81.15642 2658 ft 385 kts 69°
2026-05-03 22:34 30.65311 -81.13268 2749 ft 385 kts 33°
2026-05-03 22:35 30.67810 -81.12343 2644 ft 381 kts
2026-05-03 22:35 30.70266 -81.13197 2615 ft 364 kts 327°
2026-05-03 22:35 30.71807 -81.15416 2607 ft 363 kts 293°
2026-05-03 22:35 30.72127 -81.18374 2489 ft 381 kts 264°
2026-05-03 22:36 30.71417 -81.21423 2226 ft 398 kts 250°
2026-05-03 22:36 30.70454 -81.24481 2326 ft 406 kts 250°
2026-05-03 22:36 30.69481 -81.27589 2407 ft 412 kts 250°
2026-05-03 22:36 30.68516 -81.30702 2460 ft 416 kts 250°
2026-05-03 22:37 30.67558 -81.33841 2487 ft 399 kts 250°
2026-05-03 22:37 30.66673 -81.36827 2498 ft 381 kts 251°
2026-05-03 22:37 30.65854 -81.39695 2485 ft 366 kts 252°
2026-05-03 22:37 30.65080 -81.42501 2474 ft 376 kts 253°
2026-05-03 22:38 30.64294 -81.45444 2497 ft 381 kts 253°
2026-05-03 22:38 30.63527 -81.48379 2524 ft 374 kts 253°
2026-05-03 22:38 30.62799 -81.51257 2532 ft 368 kts 254°
2026-05-03 22:38 30.62117 -81.54114 2500 ft 365 kts 255°
2026-05-03 22:39 30.61465 -81.56991 2117 ft 371 kts 256°
2026-05-03 22:39 30.60688 -81.59807 1881 ft 371 kts 248°
2026-05-03 22:39 30.59585 -81.62515 1780 ft 368 kts 244°
2026-05-03 22:39 30.58418 -81.65179 1719 ft 368 kts 243°
2026-05-03 22:40 30.57336 -81.67862 1660 ft 363 kts 247°
2026-05-03 22:40 30.56508 -81.70574 1579 ft 360 kts 252°
2026-05-03 22:40 30.55873 -81.73380 1524 ft 358 kts 257°
2026-05-03 22:40 30.55302 -81.76283 1480 ft 375 kts 257°
2026-05-03 22:41 30.54690 -81.79238 1466 ft 374 kts 250°
2026-05-03 22:41 30.53301 -81.81686 1542 ft 370 kts 220°
2026-05-03 22:41 30.50938 -81.82805 1691 ft 366 kts 180°
2026-05-03 22:41 30.48602 -81.81842 1888 ft 354 kts 137°
2026-05-03 22:42 30.47394 -81.79493 1808 ft 344 kts 102°
2026-05-03 22:42 30.47517 -81.76724 1570 ft 351 kts 72°
2026-05-03 22:42 30.48377 -81.73952 1540 ft 357 kts 70°
2026-05-03 22:42 30.49192 -81.71328 1506 ft 351 kts 71°
2026-05-03 22:43 30.50517 -81.70364 1201 ft 237 kts 287°
2026-05-03 22:43 30.49880 -81.71435 680 ft 152 kts 155°
2026-05-03 22:43 30.49550 -81.70271 120 ft 154 kts 72°
2026-05-03 22:43 30.49909 -81.69085 161 ft 216 kts 73°
2026-05-03 22:44 30.50608 -81.66739 353 ft 342 kts 71°
2026-05-03 22:44 30.52007 -81.64702 1208 ft 352 kts
2026-05-03 22:44 30.53620 -81.66841 2217 ft 404 kts 267°
2026-05-03 22:44 30.53244 -81.70183 4076 ft 441 kts 261°
2026-05-03 22:45 30.52577 -81.73510 6126 ft 420 kts 237°
2026-05-03 22:45 30.49987 -81.74225 8574 ft 460 kts 138°
2026-05-03 22:45 30.49460 -81.70603 9142 ft 464 kts 82°
2026-05-03 22:45 30.50223 -81.67247 8738 ft 406 kts 53°
2026-05-03 22:46 30.52420 -81.66547 8086 ft 317 kts 322°
2026-05-03 22:46 30.53432 -81.68395 7120 ft 256 kts 285°
2026-05-03 22:46 30.53393 -81.70344 5775 ft 234 kts 251°
2026-05-03 22:46 30.52402 -81.71744 4342 ft 226 kts 210°
2026-05-03 22:47 30.50908 -81.72233 2755 ft 224 kts 175°
2026-05-03 22:47 30.49574 -81.70192 264 ft 183 kts 75°
2026-05-03 22:47 30.49877 -81.69147 38 ft 76 kts 71°
2026-05-03 22:48 30.49999 -81.68736 35 ft 32 kts 70°
2026-05-03 22:48 30.50018 -81.68528 37 ft 18 kts 108°
2026-05-03 22:48 30.49967 -81.68457 35 ft 0 kts 156°
2026-05-03 22:48 30.49965 -81.68456 35 ft 0 kts 156°
2026-05-03 22:49 30.49926 -81.68466 35 ft 12 kts 221°
2026-05-03 22:49 30.49871 -81.68620 36 ft 25 kts 250°
2026-05-03 22:49 30.49813 -81.68819 37 ft 26 kts 250°
2026-05-03 22:50 30.49751 -81.69019 38 ft 27 kts 253°